WetterOnline ( https://www.wetteronline.de )

Wetter aktuell Neunkirchen/Saarland

Aktuelles Wetter: Tholey (398m)

6-stündlich | Neueste Meldungen
Ortszeit Temperatur Wetter
Mo, 22.07. 8:00 18.9° C leicht bewölkt
Mo, 22.07. 2:00 19.6° C wolkig
So, 21.07. 20:00 23.9° C bedeckt
So, 21.07. 14:00 24.4° C wolkig
So, 21.07. 8:00 18.5° C wolkig
So, 21.07. 2:00 20.0° C bewölkt
Sa, 20.07. 20:00 26.5° C wolkig
Sa, 20.07. 14:00 28.0° C wolkenlos
Ortszeit Temperatur Wetter
Mo, 22.07. 9:00 21.5° C leicht bewölkt
Mo, 22.07. 8:50 21.5° C wolkig
Mo, 22.07. 8:40 20.4° C wolkig
Mo, 22.07. 8:30 19.5° C wolkig
Mo, 22.07. 8:20 19.5° C wolkig
Mo, 22.07. 8:10 19.6° C wolkig
Mo, 22.07. 8:00 18.9° C leicht bewölkt
Mo, 22.07. 7:30 17.2° C wolkig
Mo, 22.07. 7:00 16.5° C wolkig
Mo, 22.07. 6:30 15.7° C wolkig
Mo, 22.07. 6:00 16.9° C wolkig
Ortszeit Relative Feuchte Sichtweite
Mo, 22.07. 8:00 66% 30 km
Mo, 22.07. 2:00 56% 70 km
So, 21.07. 20:00 42% 70 km
So, 21.07. 14:00 45% 70 km
So, 21.07. 8:00 78% 55 km
So, 21.07. 2:00 70% 70 km
Sa, 20.07. 20:00 44% 50 km
Sa, 20.07. 14:00 39% 6 km
Ortszeit Relative Feuchte Sichtweite
Mo, 22.07. 9:00 60% 30 km
Mo, 22.07. 8:50 60% -
Mo, 22.07. 8:40 64% -
Mo, 22.07. 8:30 67% 35 km
Mo, 22.07. 8:20 67% -
Mo, 22.07. 8:10 65% -
Mo, 22.07. 8:00 66% 30 km
Mo, 22.07. 7:30 74% 30 km
Mo, 22.07. 7:00 73% 50 km
Mo, 22.07. 6:30 75% 65 km
Mo, 22.07. 6:00 71% 45 km
Ortszeit Niederschlagsmenge Niederschlagsart
Mo, 22.07. 8:00 0.0 l/m2 in 12 Std. -
Mo, 22.07. 2:00 0.0 l/m2 in 6 Std. -
So, 21.07. 20:00 0.0 l/m2 in 12 Std. -
So, 21.07. 14:00 0.0 l/m2 in 6 Std. -
So, 21.07. 8:00 0.0 l/m2 in 12 Std. -
So, 21.07. 2:00 0.0 l/m2 in 6 Std. -
Sa, 20.07. 20:00 0.0 l/m2 in 12 Std. -
Sa, 20.07. 14:00 0.0 l/m2 in 6 Std. -
Ortszeit Niederschlagsmenge Niederschlagsart
Mo, 22.07. 9:00 0.0 l/m2 in 1 Std. -
Mo, 22.07. 8:50 keine Meldung -
Mo, 22.07. 8:40 keine Meldung -
Mo, 22.07. 8:30 0.0 l/m2 in 1 Std. -
Mo, 22.07. 8:20 keine Meldung -
Mo, 22.07. 8:10 keine Meldung -
Mo, 22.07. 8:00 0.0 l/m2 in 1 Std. -
Mo, 22.07. 7:30 0.0 l/m2 in 1 Std. -
Mo, 22.07. 7:00 0.0 l/m2 in 1 Std. -
Mo, 22.07. 6:30 0.0 l/m2 in 1 Std. -
Mo, 22.07. 6:00 0.0 l/m2 in 1 Std. -
Ortszeit Stärke Spitze Richtung
km/h Bft. km/h Grad Sektor
Mo, 22.07. 8:00 2 1 6 240° SW
Mo, 22.07. 2:00 7 2 18 40° NO
So, 21.07. 20:00 11 2 43 300° NW
So, 21.07. 14:00 14 3 36 290° W
So, 21.07. 8:00 7 2 22 300° NW
So, 21.07. 2:00 9 2 35 270° W
Sa, 20.07. 20:00 22 4 54 280° W
Sa, 20.07. 14:00 22 4 43 220° SW
Ortszeit Stärke Spitze Richtung
km/h Bft. km/h Grad Sektor
Mo, 22.07. 9:00 4 1 7 170° S
Mo, 22.07. 8:50 4 1 - 170° S
Mo, 22.07. 8:40 4 1 - 150° SO
Mo, 22.07. 8:30 4 1 7 140° SO
Mo, 22.07. 8:20 4 1 - 140° SO
Mo, 22.07. 8:10 4 1 - 130° SO
Mo, 22.07. 8:00 2 1 4 240° SW
Mo, 22.07. 7:30 4 1 4 60° NO
Mo, 22.07. 7:00 0 0 4 - -
Mo, 22.07. 6:30 2 1 4 100° O
Mo, 22.07. 6:00 2 1 6 30° NO
Ortszeit Untergrenze Bedeckung Gattung
total tief tief mittel hoch
Mo, 22.07. 8:00 10500 m 8/8 0/8 - - -
Mo, 22.07. 2:00 9000 m 8/8 0/8 - - -
So, 21.07. 20:00 5400 m 8/8 8/8 - - -
So, 21.07. 14:00 1500 m 6/8 6/8 - - -
So, 21.07. 8:00 870 m 5/8 5/8 - - -
So, 21.07. 2:00 4800 m 8/8 4/8 - - -
Sa, 20.07. 20:00 2100 m 8/8 2/8 - - -
Sa, 20.07. 14:00 1500 m 0/8 0/8 - - -
Ortszeit Bedeckungsgrad in Achtel und Wolkenuntergrenze
Mo, 22.07. 9:00 3(9000m) 8(10500m)
Mo, 22.07. 8:50 3(9000m) 8(10500m)
Mo, 22.07. 8:40 4(9000m) 5(9000m) 8(10500m)
Mo, 22.07. 8:30 2(9000m) 4(10500m) 8(10500m)
Mo, 22.07. 8:20 2(9000m) 4(10500m) 8(10500m)
Mo, 22.07. 8:10 6(10500m) 8(10500m)
Mo, 22.07. 8:00 2(10500m) 8(10500m)
Mo, 22.07. 7:30 8(12000m) 8(12000m)
Mo, 22.07. 7:00 3(10500m) 8(12000m)
Mo, 22.07. 6:30 1(10500m) 4(10500m) 7(12000m)
Mo, 22.07. 6:00 5(10500m) 8(10500m) 8(12000m)
Ortszeit Luftdruck NN (hPa) Tendenz (hPa in 3 Std.)
Mo, 22.07. 8:00 1024 + 0,5
Mo, 22.07. 2:00 1023 + 0,2
So, 21.07. 20:00 1021 + 0,3
So, 21.07. 14:00 1021 + 0,7
So, 21.07. 8:00 1020 + 2,0
So, 21.07. 2:00 1017 + 1,6
Sa, 20.07. 20:00 1012 + 0,7
Sa, 20.07. 14:00 1011 - 0,2
Ortszeit Luftdruck NN (hPa) Tendenz (hPa in 3 Std.)
Mo, 22.07. 9:00 1024 + 0,7
Mo, 22.07. 8:50 1024 keine Meldung
Mo, 22.07. 8:40 1024 keine Meldung
Mo, 22.07. 8:30 1024 + 0,6
Mo, 22.07. 8:20 1024 keine Meldung
Mo, 22.07. 8:10 1024 keine Meldung
Mo, 22.07. 8:00 1024 + 0,5
Mo, 22.07. 7:30 1024 + 0,4
Mo, 22.07. 7:00 1024 + 0,2
Mo, 22.07. 6:30 1024 + 0,1
Mo, 22.07. 6:00 1024 + 0,1
Ortszeit Schneehöhe (cm)
Mo, 22.07. 8:00 -
Mo, 22.07. 2:00 -
So, 21.07. 20:00 -
So, 21.07. 14:00 -
So, 21.07. 8:00 -
So, 21.07. 2:00 -
Sa, 20.07. 20:00 -
Sa, 20.07. 14:00 -
Ortszeit Schneehöhe (cm)
Mo, 22.07. 9:00 -
Mo, 22.07. 8:50 -
Mo, 22.07. 8:40 -
Mo, 22.07. 8:30 -
Mo, 22.07. 8:20 -
Mo, 22.07. 8:10 -
Mo, 22.07. 8:00 -
Mo, 22.07. 7:30 -
Mo, 22.07. 7:00 -
Mo, 22.07. 6:30 -
Mo, 22.07. 6:00 -
Link zu dieser Seite / Seite empfehlen

Das Wetter in ...